User: anonymous   Login
Location: Unspecified
(0.0000°N, 0.0000°E)
Time: 14:00:55
(UTC+00:00)
Language:

SARAL - Orbit

View from above orbital plane
View from above orbital plane
View from above satellite
View from above satellite

Ground track
Ground track

The orbit data is extracted from the following two-line orbital elements,

1 39086U 13009A   18050.93826833 -.00000027 +00000-0 +60159-5 0  9991
2 39086 098.5387 239.6569 0000592 163.7564 196.3638 14.32008407260560
Epoch (UTC): 19 February 2018 22:31:06
Eccentricity: 0.0000592
inclination: 98.5387°
perigee height: 784 km
apogee height: 785 km
right ascension of ascending node: 239.6569°
argument of perigee: 163.7564°
revolutions per day: 14.32008407
mean anomaly at epoch: 196.3638°
orbit number at epoch: 26056

The dashed part of the orbit path shows where the satellite is in the earth's shadow,  

DLR